Total_Precipitation_Accumulation
0.02 0.01 0.02 0.01 0.01 0.01 0.03 0.04 0.05 0.06 0.06 0.05 0.04 0.03 0.01 0.01 0.01 0.01 0.01 0.01 0.02 0.02 0.02 0.03 0.04 0.04 0.04 0.04 0.04 0.03 0.03 0.04 0.05 0.05 0.06 0.08 0.12 0.18 0.22 0.25 0.38 0.34 0.15
0.01 0.01 0.02 0.01 0.01 0.02 0.03 0.05 0.06 0.07 0.08 0.07 0.06 0.04 0.02 0.01 0.01 0.01 0.02 0.02 0.02 0.02 0.02 0.02 0.02 0.02 0.02 0.02 0.02 0.02 0.03 0.04 0.07 0.10 0.13 0.13 0.15 0.22 0.22 0.21 0.39 0.27 0.11
0.00 0.01 0.02 0.02 0.01 0.01 0.02 0.04 0.06 0.07 0.09 0.08 0.07 0.06 0.03 0.02 0.01 0.01 0.02 0.02 0.02 0.02 0.02 0.01 0.01 0.01 0.01 0.01 0.01 0.01 0.02 0.05 0.10 0.18 0.33 0.32 0.15 0.21 0.22 0.20 0.22 0.12 0.09
0.00 0.01 0.01 0.01 0.01 0.01 0.02 0.04 0.06 0.07 0.08 0.07 0.07 0.05 0.04 0.03 0.02 0.02 0.02 0.01 0.02 0.03 0.02 0.01 0.01 0.01 0.01 0.01 0.01 0.01 0.03 0.05 0.11 0.24 0.53 0.38 0.14 0.11 0.14 0.13 0.12 0.07 0.06
0.00 0.00 0.01 0.02 0.01 0.02 0.02 0.03 0.04 0.06 0.07 0.06 0.06 0.05 0.03 0.03 0.03 0.02 0.02 0.02 0.03 0.03 0.02 0.01 0.01 0.01 0.00 0.01 0.01 0.02 0.03 0.06 0.14 0.30 0.37 0.32 0.32 0.14 0.09 0.11 0.11 0.07 0.05
0.01 0.00 0.01 0.02 0.02 0.02 0.01 0.02 0.03 0.04 0.05 0.05 0.04 0.04 0.03 0.03 0.03 0.02 0.02 0.03 0.03 0.03 0.02 0.01 0.01 0.01 0.00 0.00 0.01 0.02 0.03 0.07 0.16 0.22 0.24 0.29 0.35 0.20 0.12 0.17 0.17 0.11 0.07
0.01 0.01 0.01 0.03 0.03 0.02 0.02 0.02 0.03 0.03 0.04 0.05 0.05 0.04 0.03 0.03 0.04 0.03 0.03 0.03 0.04 0.04 0.03 0.02 0.01 0.01 0.01 0.00 0.00 0.01 0.03 0.08 0.17 0.20 0.26 0.39 0.40 0.24 0.24 0.40 0.44 0.31 0.17
0.01 0.01 0.02 0.03 0.03 0.03 0.04 0.04 0.04 0.04 0.05 0.05 0.05 0.05 0.04 0.04 0.04 0.04 0.03 0.03 0.05 0.06 0.05 0.03 0.02 0.02 0.02 0.01 0.01 0.01 0.04 0.07 0.12 0.19 0.26 0.38 0.34 0.31 0.45 0.67 0.69 0.55 0.39
0.02 0.01 0.03 0.04 0.04 0.05 0.05 0.05 0.05 0.06 0.07 0.07 0.06 0.06 0.05 0.05 0.06 0.06 0.05 0.05 0.06 0.08 0.09 0.07 0.04 0.03 0.03 0.03 0.03 0.03 0.05 0.08 0.13 0.22 0.28 0.29 0.24 0.26 0.50 0.69 0.64 0.57 0.48
0.04 0.02 0.03 0.06 0.08 0.08 0.07 0.08 0.08 0.09 0.08 0.08 0.08 0.09 0.09 0.09 0.10 0.12 0.11 0.11 0.11 0.13 0.14 0.13 0.11 0.10 0.11 0.11 0.10 0.09 0.10 0.08 0.08 0.12 0.26 0.39 0.30 0.38 0.64 0.78 0.69 0.62 0.55
0.06 0.04 0.03 0.05 0.08 0.09 0.09 0.09 0.10 0.10 0.11 0.11 0.12 0.12 0.13 0.16 0.28 0.36 0.38 0.41 0.36 0.35 0.32 0.28 0.28 0.28 0.25 0.18 0.21 0.31 0.22 0.07 0.06 0.11 0.27 0.45 0.41 0.56 0.84 0.93 0.88 0.78 0.68
0.07 0.05 0.05 0.05 0.07 0.08 0.08 0.14 0.15 0.17 0.21 0.18 0.24 0.32 0.35 0.43 0.44 0.38 0.59 0.67 0.67 0.73 0.67 0.63 0.79 0.67 0.48 0.38 0.71 1.08 0.41 0.17 0.14 0.16 0.26 0.41 0.62 0.89 1.10 1.03 0.94 0.87 0.79
0.12 0.09 0.10 0.11 0.13 0.15 0.16 0.17 0.20 0.26 0.40 0.36 0.38 0.51 0.67 0.66 0.53 0.42 0.54 0.82 0.98 1.12 1.07 1.18 1.33 0.97 0.90 0.97 1.12 1.13 0.67 0.47 0.35 0.37 0.49 0.72 1.04 1.28 1.35 1.16 1.04 0.98 0.91
0.24 0.24 0.28 0.29 0.33 0.31 0.33 0.35 0.35 0.41 0.55 0.63 0.79 0.85 1.00 1.01 0.87 0.76 0.78 0.89 1.11 1.28 1.61 1.68 1.57 1.48 1.44 1.34 1.27 1.11 0.94 0.90 0.72 0.76 0.96 1.08 1.24 1.40 1.53 1.38 1.19 1.11 1.05
0.45 0.54 0.62 0.58 0.65 0.72 0.74 0.76 0.67 0.73 0.82 0.91 1.09 1.24 1.36 1.50 1.44 1.39 1.30 1.24 1.16 1.33 1.66 1.88 1.82 1.85 1.82 1.71 1.52 1.34 1.16 1.12 1.10 1.14 1.26 1.47 1.49 1.43 1.45 1.51 1.37 1.20 1.11
0.68 0.86 1.00 1.06 1.21 1.23 1.18 1.19 1.17 1.01 1.01 1.04 1.18 1.31 1.51 1.72 1.92 1.99 1.87 1.71 1.44 1.42 1.53 1.86 1.99 2.12 1.99 1.84 1.32 1.26 1.27 1.33 1.35 1.31 1.34 1.81 1.86 1.48 1.33 1.33 1.35 1.30 1.22
1.07 1.24 1.40 1.57 1.74 1.72 1.61 1.49 1.34 1.24 1.24 1.37 1.47 1.48 1.70 1.94 2.12 2.12 1.86 1.55 1.39 1.51 1.59 1.55 1.59 1.88 1.65 1.51 1.31 1.40 1.44 1.37 1.33 1.31 1.32 1.58 1.67 1.39 1.12 1.04 1.11 1.17 1.23
1.41 1.53 1.71 1.81 1.95 2.02 1.98 1.93 1.71 1.55 1.61 1.58 1.51 1.50 1.61 1.82 1.86 1.87 1.51 1.16 1.25 1.47 1.55 1.50 1.45 1.54 1.52 1.57 1.54 1.52 1.49 1.34 1.13 1.06 0.96 0.92 1.02 0.91 0.96 1.08 1.01 0.95 1.09
1.78 2.06 2.29 2.41 2.30 2.31 2.30 2.26 2.09 1.90 1.69 1.51 1.50 1.46 1.39 1.34 1.38 1.45 1.15 1.03 1.19 1.33 1.35 1.32 1.45 1.55 1.44 1.50 1.54 1.42 1.17 1.02 0.87 0.76 0.71 0.63 0.64 0.66 0.65 0.85 0.89 0.91 1.08
2.08 2.51 2.83 2.84 2.62 2.34 2.10 1.84 1.79 1.69 1.61 1.50 1.43 1.31 1.17 1.07 1.09 1.26 1.14 1.03 1.16 1.24 1.19 1.33 1.45 1.53 1.33 1.30 1.25 1.00 0.82 0.61 0.57 0.50 0.41 0.43 0.44 0.43 0.50 0.62 0.84 0.76 0.99
2.21 2.66 2.85 2.80 2.32 1.83 1.63 1.44 1.34 1.22 1.18 1.24 1.24 1.19 1.15 1.05 1.04 1.18 1.09 1.00 0.99 1.01 0.98 1.12 1.24 1.24 1.03 1.24 1.38 0.92 0.62 0.49 0.41 0.31 0.27 0.29 0.30 0.36 0.49 0.65 0.80 0.81 0.90
2.03 2.51 2.54 2.06 1.59 1.30 1.15 1.04 0.92 0.89 0.88 0.87 0.84 0.82 0.81 0.82 0.87 0.95 0.93 0.84 0.79 0.82 0.81 0.89 1.02 1.02 0.90 1.17 1.31 1.16 0.81 0.60 0.48 0.33 0.32 0.31 0.33 0.43 0.49 0.57 0.79 0.94 0.98
1.77 1.79 1.48 1.18 0.92 0.73 0.63 0.59 0.62 0.59 0.59 0.53 0.48 0.48 0.53 0.58 0.59 0.59 0.60 0.64 0.68 0.69 0.71 0.77 0.93 1.05 0.91 0.94 1.17 1.30 1.02 0.70 0.61 0.48 0.48 0.51 0.54 0.60 0.65 0.77 0.88 0.97 1.04
1.18 1.01 0.83 0.73 0.61 0.55 0.55 0.50 0.56 0.50 0.45 0.41 0.35 0.36 0.40 0.42 0.42 0.41 0.43 0.53 0.60 0.66 0.71 0.66 0.71 0.87 0.92 0.84 0.94 1.05 1.07 1.07 0.99 0.71 0.54 0.52 0.59 0.61 0.63 0.68 0.77 0.90 0.97
0.63 0.58 0.49 0.56 0.63 0.59 0.55 0.49 0.45 0.38 0.33 0.30 0.32 0.36 0.41 0.42 0.41 0.38 0.37 0.39 0.49 0.57 0.64 0.66 0.68 0.74 0.81 0.79 0.80 0.85 0.93 1.03 1.02 0.93 0.68 0.53 0.54 0.54 0.60 0.66 0.73 0.79 0.87
0.27 0.27 0.28 0.37 0.48 0.45 0.44 0.42 0.40 0.37 0.35 0.31 0.30 0.31 0.33 0.36 0.38 0.38 0.38 0.40 0.42 0.43 0.47 0.54 0.60 0.65 0.71 0.74 0.74 0.80 0.89 0.88 0.88 0.99 0.86 0.70 0.64 0.58 0.67 0.74 0.85 0.94 0.95